Regional Weather Roundup
Issued by NWS Boston, MA

Current Version | Previous Version | Text Only | Print | Product List | Glossary Off
Versions: 1 2 3 4 5 6 7 8 9 10 11 12 13 14 15 16 17 18 19 20 21 22 23 24 25 26 27 28 29 30 31 32 33 34 35 36 37 38 39 40 41 42 43 44 45 46 47 48 49 50
000 ASUS41 KBOX 292310 RWRBOX REGIONAL WEATHER ROUNDUP NATIONAL WEATHER SERVICE TAUNTON MA 700 PM EDT WED MAR 29 2017 NOTE: "FAIR" INDICATES FEW OR NO CLOUDS BELOW 12,000 FEET WITH NO SIGNIFICANT WEATHER AND/OR OBSTRUCTIONS TO VISIBILITY. MAZALL-300000- EASTERN MASSACHUSETTS CITY SKY/WX TMP DP RH WIND PRES REMARKS BOSTON MOCLDY 43 24 47 NW21G29 30.09R BEVERLY MOCLDY 42 25 50 NW18G25 30.08R LAWRENCE CLOUDY 40 24 53 NW10G25 30.11R BEDFORD MOCLDY 41 21 44 NW12 30.10R BLUE HILL N/A 38 21 50 NW17G35 30.05R WCI 28 NORWOOD CLOUDY 43 23 45 NW14G21 30.10R MARSHFIELD CLOUDY 43 25 49 NW9G16 30.07R PLYMOUTH CLOUDY 42 23 46 NW12G28 30.07R TAUNTON CLOUDY 43 24 47 N8G16 30.08R NEW BEDFORD CLOUDY 43 25 49 NW9G24 30.07R $$ MAZALL-300000- CAPE COD AND THE ISLANDS CITY SKY/WX TMP DP RH WIND PRES REMARKS FALMOUTH CLOUDY 43 27 52 MISG 30.07R HYANNIS CLOUDY 42 30 62 NW14G23 30.03R CHATHAM CLOUDY 41 35 79 VRB5 30.05R PROVINCETOWN CLOUDY 41 32 70 NW15G21 30.06R NANTUCKET CLOUDY 42 33 70 N15 30.04R MARTHAS VNYRD CLOUDY 45 30 55 N20G26 30.05R $$ MAZALL-300000- CENTRAL AND WESTERN MASSACHUSETTS CITY SKY/WX TMP DP RH WIND PRES REMARKS WORCESTER CLOUDY 38 22 52 NW9 30.09R WCI 31 FITCHBURG CLOUDY 41 24 51 NW12G22 30.12R ORANGE CLOUDY 38 25 59 NW14 30.13R WCI 30 SPRINGFIELD MOCLDY 42 25 50 N12 30.13R WESTFIELD PTCLDY 43 23 45 N14G28 30.12R NORTH ADAMS CLOUDY 39 24 55 NW9G20 30.16R PITTSFIELD CLOUDY 38 21 50 NW15G25 30.12R WCI 29 $$ RIZALL-300000- RHODE ISLAND CITY SKY/WX TMP DP RH WIND PRES REMARKS PROVIDENCE CLOUDY 44 23 43 N21G30 30.10R NEWPORT CLOUDY 44 26 49 NW22G32 30.07R BLOCK ISLAND CLOUDY 43 38 82 SW7 30.09R SMITHFIELD CLOUDY 41 26 55 N14G23 30.10R WESTERLY MOCLDY 48 29 47 N12 30.10R $$ CTZALL-300000- CONNECTICUT CITY SKY/WX TMP DP RH WIND PRES REMARKS BRADLEY INTL MOCLDY 44 24 45 N10 30.13R HARTFORD MOCLDY 45 25 45 N14 30.13R BRIDGEPORT CLEAR 51 23 33 NW14G26 30.11R DANBURY CLEAR 47 23 38 N12 30.13R GROTON MOCLDY 48 27 44 N16G25 30.09R NEW HAVEN CLEAR 48 25 40 N16G25 30.11R CHESTER NOT AVBL MERIDEN MOCLDY 48 28 46 NW15 30.12R WILLIMANTIC MOCLDY 45 28 51 N10 30.12R OXFORD PTCLDY 45 23 42 N16 30.12R $$ MEZ002-015-021-024-NHZ003-005-008-011-012-014-VTZ005-008-300000- NORTHERN NEW ENGLAND CITY SKY/WX TMP DP RH WIND PRES REMARKS PORTLAND ME CLOUDY 41 23 48 NW13G25 30.06R BANGOR ME CLOUDY 37 29 72 NW14 30.01R WCI 28 CONCORD NH CLOUDY 40 25 55 NW16G23 30.10R WCI 31 MANCHESTER NH CLOUDY 41 22 46 NW13G21 30.09R NASHUA NH CLOUDY 41 23 48 NW13G18 30.11R PORTSMOUTH NH MOCLDY 40 24 52 NW13 30.07R JAFFREY NH CLOUDY 38 20 48 NW12G20 30.10R WCI 30 KEENE NH CLOUDY 40 20 44 N14G28 30.14R BURLINGTON VT CLOUDY 39 26 59 N3 30.20R MT. WASHINGTON FOG 10 10 100 NW60G71 N/A VSB 1/16WCI -18 $$ NYZ052-076-300000- EASTERN NEW YORK CITY SKY/WX TMP DP RH WIND PRES REMARKS ALBANY CLOUDY 43 21 41 N16G23 30.20R NEW YORK CITY CLEAR 54 24 31 N18 30.11R $$ ANZALL-300000- MARINE OBSERVATIONS STATION/POSITION TIME TEMP WIND PRES VSBY WAVE AIR SEA DIR/SP/G HT/PER (UTC) (F) (DEG/KT/KT) (MB) (MI) (FT/S) BOSTON BUOY 2150 42 40 320/ 19/ 23 1016.7 4/ 6 BUZZARDS BAY 2300 44 340/ 20/ 24 1018.5R NANTUCKET SOUND 2250 40 1017.4R 2/ 3 MASS BAY-STELLWA 2204 42 39 330/ 17/ 19 1016.4R 4/ 9 ISLE OF SHOALS 2300 41 320/ 12/ 14 1018.1R S OF BLOCK IS 2255 40 N/A 3/15 $$ ......................KEY......................... SKY/WX - SKY CONDITION/PRESENT WEATHER TMP - TEMPERATURE IN FAHRENHEIT DWPT - DEWPOINT IN FAHRENHEIT RH - RELATIVE HUMIDITY IN PERCENT WIND - DIRECTION AND SPEED IN MPH PRES - MEAN SEA LEVEL PRESSURE IN INCHES OF HG WCI - WIND CHILL INDEX VSB - VISIBILITY IN MILES HX - HEAT INDEX TC - TEMPERATURE IN CELSIUS VRB - VARIABLE WIND DIRECTION N/A - NOT AVAILABLE

USA.gov is the U.S. government's official web portal to all federal, state and local government web resources and services.